Location: Venise Bay
(45.0825°N, 73.1481°W)
Time: 06:33:27
(UTC-05:00)

N. Korean satellite - Visible Passes

Search period start: 23 February 2020 00:00
Search period end: 04 March 2020 00:00
Orbit: 456 x 505 km, 97.2° (Epoch: 23 February)

Date Brightness Start Highest point End Pass type
(mag) Time Alt. Az. Time Alt. Az. Time Alt. Az.
23 Feb 7.1 05:34:29 10° NNE 05:38:12 66° E 05:41:52 10° S visible
24 Feb 8.6 05:09:13 10° NNE 05:12:35 31° E 05:15:54 10° SSE visible
25 Feb 9.8 04:44:27 10° NE 04:46:52 16° E 04:49:15 10° SE visible
26 Feb 6.6 05:51:13 10° N 05:54:56 76° WNW 05:58:36 10° SSW visible
26 Feb 10.5 18:04:04 10° WSW 18:05:24 12° W 18:06:44 10° WNW visible
27 Feb 7.6 05:25:44 10° NNE 05:29:22 50° E 05:32:56 10° S visible
28 Feb 9.1 05:00:36 10° NE 05:03:42 25° E 05:06:46 10° SSE visible
29 Feb 10.0 04:36:09 10° ENE 04:37:57 13° E 04:39:43 10° ESE visible
01 Mar 6.7 05:42:22 10° NNE 05:46:05 84° ESE 05:49:44 10° S visible
02 Mar 8.2 05:16:59 10° NNE 05:20:29 39° E 05:23:55 10° SSE visible
03 Mar 9.5 04:52:01 10° NE 04:54:47 20° E 04:57:31 10° SE visible
